www.pogodaiklimat.ru

Погода и климат >> Архив погоды >> Германия >> Leuchtturm Kiel


ПОГОДА в Leuchtturm Kiel

  • Прогноз погоды в Leuchtturm Kiel
  • Монитор погоды в Leuchtturm Kiel
  • Климат города

АРХИВ ПОГОДЫ в Leuchtturm Kiel

Время (UTC), дата Ветер
(напр.,м/с)
 
Видим.   Явления Облачность Т
(С)
Тd
(С)
f
(%)
Тe
(С)
Тes
(С)
Комфортность P
(гПа)
Po
(гПа)
Тmin
(С)
Tmax
(С)
R
(мм)
R24
(мм)
S
(см)
16 9.08 ЮЗ 8 н/о н/о +20.0 +12.3 61 +21 +21 комфорт 1015.2 1012.2
17 9.08 ЮЗ 10 н/о н/о +20.2 +12.0 59 +21 +21 комфорт 1015.6 1012.6
18 9.08 З 6
{15}
н/о н/о +19.6 +13.4 67 +21 +21 комфорт 1016.4 1013.4 +15.6 +20.3
19 9.08 З 6 н/о н/о +18.8 +14.0 74 +19 +19 1016.8 1013.8
20 9.08 ЮЗ 5 н/о н/о +18.2 +13.0 72 +18 +18 1017.5 1014.4
21 9.08 ЮЗ 5 н/о н/о +17.8 +13.3 75 +17 +17 1017.7 1014.6
22 9.08 ЮЗ 6 н/о н/о +17.4 +13.3 77 +17 +17 1018.1 1015.0
23 9.08 ЮЗ 6 н/о н/о +17.2 +13.5 79 +16 +16 1018.1 1015.1
00 10.08 ЮЗ 6 н/о н/о +16.7 +13.6 82 +16 +16 1017.9 1014.8
01 10.08 ЮЗ 5 н/о н/о +16.0 +13.5 85 +15 +15 1018.0 1014.9
02 10.08 ЮЗ 7 н/о н/о +15.7 +13.5 87 +14 +14 1018.3 1015.2
03 10.08 ЮЗ 6 н/о н/о +15.2 +13.4 89 +14 +14 1018.4 1015.3
04 10.08 ЮЗ 6 н/о н/о +15.0 +13.5 91 +13 +13 1018.2 1015.1
05 10.08 ЮЗ 4 н/о н/о +15.3 +13.6 90 +14 +14 1018.2 1015.1
06 10.08 ЮЗ 5 н/о н/о +15.3 +13.7 90 +14 +14 1019.2 1016.0 +14.9 +20.3
07 10.08 З 5 н/о н/о +16.3 +13.8 85 +15 +15 1019.5 1016.4
08 10.08 З 5 н/о н/о +16.6 +14.0 85 +16 +16 1019.3 1016.2
09 10.08 СЗ 3 н/о н/о +17.8 +13.6 76 +18 +18 1019.8 1016.7
10 10.08 СЗ 2 н/о н/о +19.0 +13.6 71 +21 +21 комфорт 1020.3 1017.2
11 10.08 СЗ 3 н/о н/о +19.1 +12.5 66 +20 +20 1020.2 1017.1
12 10.08 С 4 н/о н/о +18.8 +13.5 71 +20 +20 1020.1 1017.1
13 10.08 С 3 н/о н/о +18.8 +12.8 68 +20 +20 1020.1 1017.1
14 10.08 СВ 2 н/о н/о +19.1 +13.0 68 +21 +21 комфорт 1020.1 1017.0
15 10.08 СВ 2 н/о н/о +18.7 +12.4 67 +20 +20 1019.8 1016.7
16 10.08 СВ 1 н/о н/о +18.6 +12.2 66 +20 +20 1019.8 1016.7
17 10.08 С 2 н/о н/о +18.6 +12.5 68 +20 +20 1019.6 1016.5
18 10.08 С 1 н/о н/о +18.6 +12.7 69 +20 +20 1019.7 1016.6 +15.2 +19.6
19 10.08 СВ 1 н/о н/о +18.3 +13.1 72 +20 +20 1019.7 1016.6
20 10.08 ЮЗ 1 н/о н/о +17.9 +13.1 73 +19 +19 1019.6 1016.5
21 10.08 З 2 н/о н/о +17.7 +14.4 81 +18 +18 1019.8 1016.7
22 10.08 СЗ 4 н/о н/о +17.4 +13.5 78 +17 +17 1019.6 1016.5
23 10.08 С 7 н/о н/о +17.1 +13.5 79 +16 +16 1018.9 1015.8
00 11.08 С 8 н/о н/о +16.7 +11.7 72 +15 +15 1019.1 1016.0
01 11.08 С 8 н/о н/о +16.2 +12.1 77 +15 +15 1018.4 1015.3
02 11.08 С 6 н/о н/о +16.2 +12.1 77 +15 +15 1018.5 1015.4
03 11.08 С 6 н/о н/о +15.9 +12.4 80 +15 +15 1018.3 1015.2
04 11.08 С 7 н/о н/о +16.1 +12.6 80 +15 +15 1017.4 1014.3
05 11.08 С 7 н/о н/о +16.3 +12.4 78 +15 +15 1016.5 1013.4
06 11.08 С 7 н/о н/о +15.8 +12.4 80 +14 +14 1017.1 1014.0 +15.8 +18.9
07 11.08 С 7 н/о н/о +15.8 +13.1 84 +14 +14 1016.8 1013.7
08 11.08 С 7 н/о н/о +15.9 +13.2 84 +14 +14 1016.4 1013.3
09 11.08 С 6 н/о н/о +16.0 +13.1 83 +15 +15 1016.2 1013.1
10 11.08 С 5 н/о н/о +16.3 +13.1 81 +15 +15 1016.5 1013.4
11 11.08 С 5 н/о н/о +16.6 +12.6 77 +16 +16 1015.8 1012.7
12 11.08 С 5 н/о н/о +16.7 +12.6 77 +16 +16 1015.5 1012.4
13 11.08 С 5 н/о н/о +16.8 +13.2 79 +16 +16 1015.0 1012.0
14 11.08 С 5 н/о н/о +16.1 +13.0 82 +15 +15 1014.8 1011.7
15 11.08 С 5 н/о н/о +16.0 +13.5 85 +15 +15 1014.7 1011.6
16 11.08 СЗ 4 н/о н/о +15.7 +13.1 85 +15 +15 1014.4 1011.3
17 11.08 СЗ 5 н/о н/о +16.1 +12.9 81 +15 +15 1013.7 1010.6
18 11.08 С 5 н/о н/о +16.6 +12.7 78 +16 +16 1012.5 1009.4 +15.5 +16.9
19 11.08 СЗ 4 н/о н/о +17.0 +12.0 72 +17 +17 1012.9 1009.9
20 11.08 СЗ 4 н/о н/о +17.0 +12.0 72 +17 +17 1012.8 1009.7
21 11.08 СЗ 7 н/о н/о +16.8 +12.5 76 +16 +16 1011.9 1008.8
22 11.08 СЗ 9 н/о н/о +16.4 +13.0 80 +15 +15 1011.2 1008.1
23 11.08 СЗ 7 н/о н/о +16.3 +12.9 80 +15 +15 1011.2 1008.2
00 12.08 СЗ 8 н/о н/о +16.1 +12.6 80 +14 +14 1010.5 1007.4
01 12.08 СЗ 8 н/о н/о +15.8 +12.5 81 +14 +14 1010.3 1007.2
02 12.08 З 7 н/о н/о +15.6 +12.3 81 +14 +14 1010.4 1007.3
03 12.08 З 6 н/о н/о +15.6 +12.5 82 +14 +14 1010.0 1006.9
04 12.08 З 5 н/о н/о +15.6 +12.4 81 +14 +14 1009.6 1006.5
05 12.08 ЮЗ 5 н/о н/о +15.1 +12.7 86 +14 +14 1009.9 1006.8
06 12.08 ЮЗ 5 н/о н/о +15.0 +13.2 89 +14 +14 1009.7 1006.6 +14.9 +17.1
07 12.08 ЮЗ 8 н/о н/о +15.2 +13.7 91 +13 +13 1009.8 1006.7
08 12.08 ЮЗ 8 н/о н/о +15.2 +13.9 92 +13 +13 1010.0 1006.9
09 12.08 ЮЗ 7 н/о н/о +15.1 +13.6 91 +13 +13 1010.0 1006.9
10 12.08 ЮЗ 9 н/о н/о +15.1 +13.6 91 +13 +13 1009.9 1006.8
11 12.08 ЮЗ 9 н/о н/о +15.4 +13.8 90 +13 +13 1010.0 1006.9
12 12.08 ЮЗ 10 н/о н/о +15.2 +13.1 87 +13 +13 1010.0 1006.9
13 12.08 ЮЗ 10 н/о н/о +15.4 +13.8 90 +13 +13 1009.7 1006.6
14 12.08 Ю 10 н/о н/о +15.4 +14.5 94 +13 +13 1009.4 1006.3
15 12.08 ЮЗ 10
{13}
н/о н/о +15.6 +14.7 94 +13 +13 1009.3 1006.2
16 12.08 ЮЗ 8 н/о н/о +16.1 +15.2 94 +14 +14 1009.5 1006.4
17 12.08 ЮЗ 8 н/о н/о +16.6 +15.6 94 +15 +15 1009.4 1006.4
18 12.08 З 9
{13}
н/о н/о +17.5 +14.8 84 +16 +16 1009.6 1006.6 +14.9 +17.6
19 12.08 ЮЗ 8 н/о н/о +16.6 +14.6 88 +15 +15 1010.4 1007.3
20 12.08 ЮЗ 7 н/о н/о +16.2 +14.0 87 +15 +15 1011.0 1007.9
21 12.08 ЮЗ 8
{13}
н/о н/о +15.9 +14.0 88 +14 +14 1011.3 1008.2
22 12.08 ЮЗ 9 н/о н/о +15.6 +13.3 86 +14 +14 1011.6 1008.5
23 12.08 ЮЗ 9 н/о н/о +15.4 +13.1 86 +13 +13 1011.8 1008.7
00 13.08 З 9
{13}
н/о н/о +15.4 +13.0 86 +13 +13 1012.0 1008.9
01 13.08 ЮЗ 8 н/о н/о +15.1 +12.9 87 +13 +13 1012.5 1009.4
02 13.08 З 7 н/о н/о +15.4 +12.9 85 +14 +14 1012.8 1009.7
03 13.08 З 8 н/о н/о +15.5 +12.9 84 +14 +14 1013.3 1010.2
04 13.08 З 7 н/о н/о +15.0 +12.4 84 +13 +13 1013.9 1010.8
05 13.08 З 7 н/о н/о +15.0 +11.7 81 +13 +13 1014.7 1011.5
06 13.08 З 7 н/о н/о +15.4 +11.0 75 +14 +14 1015.2 1012.1 +14.9 +17.6
07 13.08 З 5 н/о н/о +15.4 +10.8 74 +14 +14 1016.3 1013.2
08 13.08 З 6 н/о н/о +16.0 +10.2 68 +15 +15 1017.0 1013.9
09 13.08 З 6 н/о н/о +16.2 +9.7 65 +15 +15 1017.5 1014.4
10 13.08 З 7 н/о н/о +16.6 +9.4 62 +15 +15 1017.8 1014.7
11 13.08 СЗ 6 н/о н/о +17.1 +10.0 63 +16 +16 1018.3 1015.2
12 13.08 З 5 н/о н/о +17.6 +7.6 52 +17 +17 1018.5 1015.4
13 13.08 З 7 н/о н/о +17.2 +9.5 61 +16 +16 1018.9 1015.8
14 13.08 З 8 н/о н/о +17.5 +7.0 50 +16 +16 1019.1 1016.0
15 13.08 З 6 н/о н/о +18.0 +9.1 56 +17 +17 1019.5 1016.4
16 13.08 З 7 н/о н/о +18.0 +8.4 53 +17 +17 1019.8 1016.7
17 13.08 З 7 н/о н/о +17.8 +8.3 54 +17 +17 1020.1 1017.0
18 13.08 СЗ 7 н/о н/о +17.6 +9.1 57 +17 +17 1020.4 1017.3 +15.0 +18.4
19 13.08 СЗ 7 н/о н/о +17.0 +8.4 57 +16 +16 1021.0 1017.9
20 13.08 З 7 н/о н/о +16.4 +8.2 58 +15 +15 1021.8 1018.7
21 13.08 СЗ 7 н/о н/о +15.7 +8.9 64 +14 +14 1022.1 1019.0
22 13.08 СЗ 7 н/о н/о +15.4 +9.5 68 +14 +14 1022.6 1019.5
23 13.08 СЗ 6 н/о н/о +15.1 +9.8 71 +14 +14 1023.0 1019.9
00 14.08 СЗ 5 н/о н/о +14.9 +10.2 73 +13 +13 1023.2 1020.0
01 14.08 СЗ 3 н/о н/о +14.7 +10.6 76 +14 +14 1023.4 1020.2
02 14.08 СЗ 3 н/о н/о +14.9 +9.3 69 +14 +14 1023.4 1020.3
03 14.08 С 2 н/о н/о +14.8 +9.5 71 +15 +15 1023.4 1020.3
04 14.08 С 1 н/о н/о +14.9 +9.2 69 +15 +15 1023.7 1020.5
05 14.08 СВ 1 н/о н/о +15.9 +8.6 62 +17 +17 1023.8 1020.6
06 14.08 ЮЗ 2 н/о н/о +15.5 +12.9 84 +15 +15 1024.3 1021.2 +14.2 +18.1
07 14.08 Ю 2 н/о н/о +14.9 +11.4 80 +15 +15 1024.7 1021.5
08 14.08 ЮВ 2 н/о н/о +15.3 +10.9 75 +15 +15 1024.9 1021.8
09 14.08 В 4 н/о н/о +15.5 +10.4 72 +15 +15 1025.0 1021.9
10 14.08 В 5 н/о н/о +15.6 +9.4 67 +14 +14 1024.8 1021.7
11 14.08 В 6 н/о н/о +16.1 +7.8 58 +15 +15 1024.4 1021.3
12 14.08 В 6 н/о н/о +16.5 +8.5 59 +15 +15 1024.0 1020.9
13 14.08 В 7 н/о н/о +16.7 +9.9 64 +15 +15 1023.9 1020.8
14 14.08 В 8 н/о н/о +17.0 +7.9 55 +16 +16 1023.4 1020.3
15 14.08 В 9 н/о н/о +17.4 +7.8 53 +16 +16 1022.8 1019.7
16 14.08 В 9 н/о н/о +17.5 +9.5 59 +16 +16 1022.4 1019.3
17 14.08 В 10 н/о н/о +17.8 +10.5 62 +17 +17 1022.0 1018.9
18 14.08 В 11
{13}
н/о н/о +17.7 +10.2 61 +16 +16 1021.7 1018.6 +14.2 +17.8
19 14.08 В 11
{13}
н/о н/о +17.5 +10.9 65 +16 +16 1021.6 1018.5
20 14.08 В 12
{14}
н/о н/о +17.3 +13.6 79 +16 +16 1021.6 1018.5
21 14.08 В 11
{14}
н/о н/о +17.6 +14.8 84 +16 +16 1021.4 1018.3
22 14.08 В 10
{13}
н/о н/о +17.7 +14.5 82 +16 +16 1021.1 1018.0
23 14.08 ЮВ 11
{13}
н/о н/о +17.7 +13.7 77 +16 +16 1020.5 1017.4
00 15.08 ЮВ 12
{14}
н/о н/о +17.4 +13.5 78 +16 +16 1019.9 1016.8
01 15.08 ЮВ 10 н/о н/о +17.3 +13.7 79 +16 +16 1019.5 1016.4
02 15.08 ЮВ 9 н/о н/о +17.1 +13.7 80 +16 +16 1019.1 1016.0
03 15.08 ЮВ 8
{13}
н/о н/о +17.2 +14.0 81 +16 +16 1018.7 1015.6
04 15.08 ЮВ 7 н/о н/о +17.5 +14.7 84 +17 +17 1018.2 1015.1
05 15.08 ЮВ 7 н/о н/о +17.5 +14.0 80 +17 +17 1018.0 1014.9
06 15.08 ЮВ 11
{13}
н/о н/о +17.7 +13.8 78 +16 +16 1017.5 1014.4 +17.1 +17.8
07 15.08 ЮВ 12
{13}
н/о н/о +17.4 +14.5 83 +16 +16 1017.0 1013.9
08 15.08 ЮВ 13
{15}
н/о н/о +17.8 +14.7 82 +16 +16 1016.7 1013.6
09 15.08 В 11
{15}
н/о н/о +18.3 +15.1 82 +17 +17 1016.5 1013.4
10 15.08 ЮВ 9 н/о н/о +19.7 +15.4 76 +21 +21 комфорт 1016.0 1012.9
11 15.08 ЮВ 8
{13}
н/о н/о +21.2 +14.9 67 +24 +24 комфорт 1016.0 1013.0
12 15.08 Ю 9
{15}
н/о н/о +24.4 +13.3 50 +27 +27 жарко 1015.4 1012.4
13 15.08 Ю 9 н/о н/о +25.0 +14.0 50 +27 +27 жарко 1014.8 1011.8
14 15.08 Ю 7 н/о н/о +24.2 +14.2 54 +27 +27 жарко 1014.4 1011.4
15 15.08 Ю 7 н/о н/о +25.2 +14.8 52 +28 +28 жарко 1014.1 1011.1
16 15.08 Ю 9 н/о н/о +25.7 +14.7 51 +28 +28 жарко 1013.7 1010.8
17 15.08 Ю 9 н/о н/о +25.3 +15.1 53 +28 +28 жарко 1013.0 1010.0
18 15.08 Ю 9 н/о н/о +24.7 +16.0 58 +28 +28 душно 1012.6 1009.6 +17.4 +26.1
19 15.08 З 7 н/о н/о +22.5 +16.6 69 +27 +27 душно 1013.9 1010.8
20 15.08 ЮЗ 6
{15}
н/о н/о +18.6 +16.8 89 +19 +19 1014.8 1011.7
21 15.08 ЮЗ 5
{15}
н/о н/о +18.7 +16.7 88 +19 +19 1014.9 1011.8
22 15.08 Ю 3 н/о н/о +18.0 +16.8 93 +18 +18 1014.8 1011.7
23 15.08 З 7 н/о н/о +18.2 +17.2 94 +18 +18 1015.1 1012.0
00 16.08 З 5
{15}
н/о н/о +18.4 +17.3 93 +19 +19 1015.2 1012.1
01 16.08 З 6 н/о н/о +18.2 +16.8 92 +18 +18 1015.5 1012.5
02 16.08 З 7 н/о н/о +17.9 +16.1 89 +17 +17 1016.0 1012.9
03 16.08 З 7 н/о н/о +17.7 +15.8 89 +17 +17 1016.3 1013.2
04 16.08 З 7 н/о н/о +17.3 +15.8 91 +16 +16 1016.9 1013.8
05 16.08 СЗ 7 н/о н/о +17.3 +15.4 89 +16 +16 1017.9 1014.8
06 16.08 З 6 н/о н/о +17.0 +15.1 89 +16 +16 1018.6 1015.5 +16.9 +25.4
07 16.08 З 6 н/о н/о +17.1 +14.6 85 +16 +16 1019.4 1016.3
08 16.08 СЗ 6 н/о н/о +17.5 +13.5 77 +17 +17 1019.7 1016.6
09 16.08 СЗ 4 н/о н/о +18.8 +14.3 75 +20 +20 1020.6 1017.6
10 16.08 С 2 н/о н/о +19.3 +14.4 73 +21 +21 комфорт 1020.6 1017.5
11 16.08 СЗ 1 н/о н/о +21.3 +13.0 59 +24 +24 комфорт 1020.8 1017.8
12 16.08 СВ 1 н/о н/о +20.2 +14.1 68 +24 +24 комфорт 1021.2 1018.1
13 16.08 В 3 н/о н/о +18.6 +13.2 71 +19 +19 1021.2 1018.2
14 16.08 В 3 н/о н/о +18.7 +13.6 72 +20 +20 1021.0 1017.9
15 16.08 В 2 н/о н/о +19.1 +13.3 69 +21 +21 комфорт 1021.1 1018.0
16 16.08 В 1 н/о н/о +19.8 +12.2 62 +22 +22 комфорт 1021.1 1018.0

 

Местоположение метеостанции Leuchtturm Kiel (Германия): широта 54.50 долгота 10.28 высота над уровнем моря 21 м.

В архиве по умолчанию представлена погода в Leuchtturm Kiel за последнюю неделю. Архивные данные за месяц целиком и за предыдущие месяцы, начиная с января 2011 года, Вы можете получить, выбрав интересующий диапазон дат из раскрывающегося списка и нажав кнопку "Ввод!".

Внимание! Время в таблицах - всемирное. Для получения местного времени необходимо прибавить поправку, которая в Leuchtturm Kiel равна 1 ч.

Смотрите также архив погоды в соседних городах и на ближайших метеорологических станциях:

Погода в Kiel-Holtenau (Германия) (16 км)
Погода в Olpenitz (Германия) (25 км)
Погода в Doernick (Германия) (37 км)
Погода в Kegnaes (Дания) (43 км)
Погода в Schleswig (Германия) (47 км)
Погода в Schleswig Airport (Германия) (49 км)
Погода в Westermarkelsdorf (Германия) (51 км)
Погода в Hohn (Германия) (53 км)
Погода в Langoe (Дания) (58 км)
Погода в Taasinge (Дания) (61 км)

Пояснения к столбцам:

Ветер - указаны скорость ветра в м/с - средняя за 10 мин, порывы в срок и между сроками (в фигурных скобках) и направление, откуда дует ветер: С - северный, СВ - северо-восточный, В - восточный, ЮВ - юго-восточный, Ю - южный, ЮЗ - юго-западный, З - западный, СЗ - северо-западный.
Видимость - горизонтальная дальность видимости в метрах или километрах. При видимости от 1 до 10 км при отсутствии осадков обычно наблюдается дымка, при ухудшении видимости до 1 км и менее - туман. В сухую погоду видимость может ухудшаться дымом, пылью или мглою.
Явления - указаны атмосферные явления, наблюдавшиеся в срок или в последний час перед сроком; фигурными скобками обозначены явления, наблюдавшиеся между сроками (за 1-3 часа до срока); квадратными скобками обозначены град или гололедные отложения с указанием их диаметра в мм.
Облачность - указаны через наклонную черту общая и нижняя облачность в баллах и высота нижней границы облаков в метрах; квадратными скобками обозначены формы облаков: Ci - перистые, Cs - перисто-слоистые, Cc - перисто-кучевые, Ac - высококучевые, As - высокослоистые, Sc - слоисто-кучевые, Ns - слоисто-дождевые, Cu - кучевые, Cb - кучево-дождевые. Подробнее классификацию облаков см. в Атласе облаков (PDF).
T - Температура воздуха - температура, измеренная на высоте 2 м над землей.
Td - Температура точки росы - температура, при понижении до которой содержащийся в воздухе водяной пар достигнет насыщения.
f - Относительная влажность воздуха - влажноcть воздуха, измеренная на высоте 2 м над землей.
Te - Эффективная температура - температура, которую ощущает одетый по сезону человек в тени. Характеристика душности погоды. При расчете учитывается влияние влажности воздуха и скорости ветра на теплоощущения человека.
Tes - Эффективная температура на солнце - температура, которую ощущает человек, с поправкой на солнечный нагрев. Характеристика знойности погоды. Зависит от высоты солнца над горизонтом, облачности и скорости ветра. Ночью, в пасмурную погоду, а также при ветре 12 м/с и более поправка равна нулю.
P - Атмосферное давление - приведенное к уровню моря атмосферное давление.
Po - Атмосферное давление - измеренное на уровне метеостанции атмосферное давление.
Tmin - Минимальная температура - минимум температуры воздуха на высоте 2 м над землей.
Tmax - Максимальная температура - максимум температуры воздуха на высоте 2 м над землей.
R - Количество осадков - Количество выпавших осадков за период времени, мм. При наведении курсора мыши на число - период времени, за который выпало указанное количество осадков.
R24 - Количество осадков - Количество выпавших осадков за 24 часа, мм.
S - Снежный покров - Высота снежного покрова, см. При наведении курсора мыши на число - состояние снежного покрова и степень покрытия местности в баллах.